This demonstration page uses our WeatherBlox Daily Observations layout. Learn more.

Left ArrowRight Arrow

41.86663, -103.66717

Hourly Observations for June 20, 2022

Temp ( °F °C ) Dew Point ( °F °C ) Humidity (%) Winds ( mph kmh ) Pressure ( in mb ) Visibility ( mi km ) Precip ( " mm )
12:53 am 00:53 Clear 64 17.8 53 11.7 68 68 WNW 5 7 29.72 1007 10 16 0.00 0.00
1:53 am 01:53 Mostly Clear 59 15 52 11.1 78 78 NNW 3 6 29.75 1007 10 16 0.00 0.00
2:53 am 02:53 Clear 62 16.7 54 12.2 75 75 NW 8 13 29.73 1007 10 16 0.00 0.00
3:53 am 03:53 Mostly Clear 59 15 54 12.2 83 83 NW 7 11 29.75 1008 10 16 0.00 0.00
4:53 am 04:53 Clear 58 14.4 54 12.2 87 87 NW 7 11 29.77 1008 10 16 0.00 0.00
5:53 am 05:53 Sunny 60 15.6 54 12.2 80 80 W 8 13 29.78 1008 10 16 0.00 0.00
6:53 am 06:53 Sunny 63 17.2 54 12.2 73 73 NW 3 6 29.79 1009 10 16 0.00 0.00
7:53 am 07:53 Hazy 69 20.6 55 12.8 61 61 W 6 9 29.81 1009 2 3 0.00 0.00
8:04 am 08:04 Sunny 69 20.6 55 12.8 61 61 W 8 13 29.75 1008 10 16 0.00 0.00
8:53 am 08:53 Mostly Sunny 72 22.2 55 12.8 55 55 W 9 15 29.81 1010 10 16 0.00 0.00
9:53 am 09:53 Mostly Sunny 76 24.4 57 13.9 52 52 VRB 6 9 29.81 1010 10 16 0.00 0.00
10:53 am 10:53 Sunny 80 26.7 58 14.4 47 47 VRB 6 9 29.81 1009 10 16 0.00 0.00
11:53 am 11:53 Sunny 83 28.3 59 15 44 44 Calm 29.79 1009 10 16 0.00 0.00
12:53 pm 12:53 Sunny 86 30 58 14.4 39 39 ESE 10 17 29.75 1008 10 16 0.00 0.00
1:53 pm 13:53 Mostly Sunny 87 30.6 59 15 39 39 SE 9 15 29.76 1008 10 16 0.00 0.00
2:06 pm 14:06 Partly Cloudy with Nearby Thunderstorms 87 30.6 56 13.3 35 35 SSE 8 13 29.57 1001 10 16 0.00 0.00
2:21 pm 14:21 Partly Cloudy 74 23.3 54 12.2 50 50 NNW 20 31 29.69 1005 10 16 0.00 0.00
2:42 pm 14:42 Mostly Cloudy with Thunderstorms 69 20.6 53 11.7 57 57 NW 15 24 29.74 1007 4 6 0.00 0.00
2:53 pm 14:53 Cloudy with Thunderstorms 68 20 56 13.3 65 65 NNW 14 22 29.83 1010 10 16 0.08 2.03
3:38 pm 15:38 Partly Cloudy with Nearby Thunderstorms 70 21.1 61 16.1 73 73 NNE 9 15 29.72 1006 10 16 0.18 4.57
3:46 pm 15:46 Mostly Cloudy 74 23.3 63 17.2 69 69 N 8 13 29.68 1005 10 16 0.18 4.57
3:53 pm 15:53 Partly Cloudy 76 24.4 60 15.6 58 58 N 7 11 29.79 1009 10 16 0.18 4.57
4:53 pm 16:53 Sunny 79 26.1 61 16.1 54 54 NE 9 15 29.82 1010 10 16 0.00 0.00
5:53 pm 17:53 Sunny 79 26.1 60 15.6 52 52 NNE 17 28 29.84 1011 10 16 0.00 0.00
6:53 pm 18:53 Sunny 79 26.1 36 2.2 21 21 WNW 23 37 29.90 1012 10 16 0.00 0.00
7:53 pm 19:53 Sunny 74 23.3 37 2.8 26 26 NW 14 22 29.94 1014 10 16 0.00 0.00
8:53 pm 20:53 Clear 68 20 39 3.9 35 35 NW 9 15 29.98 1015 10 16 0.00 0.00
9:53 pm 21:53 Clear 68 20 33 0.6 27 27 WNW 16 26 29.99 1016 10 16 0.00 0.00
10:53 pm 22:53 Clear 67 19.4 30 -1.1 25 25 WNW 21 33 29.99 1016 10 16 0.00 0.00
11:53 pm 23:53 Clear 63 17.2 31 -0.6 30 30 WNW 14 22 30.02 1017 10 16 0.00 0.00

Powered by AerisWeather